Location: Sungai Bunut
(2.6333°N, 113.7333°E)
Time: 19:16:37
(UTC+00:00)

Vanguard 3 - Pass Details

Date: 07 December 2023
Orbit: 508 x 3239 km, 33.4° (Epoch: 24 February)

Event Time Altitude Azimuth Distance (km) Brightness Sun altitude
Rises 09:52:18 0° 234° (SW) 6,911 13.9 4.5°
Reaches altitude 10° 09:56:41 10° 233° (SW) 6,047 13.5 3.5°
Maximum altitude 10:16:52 90° 321° (NW) 3,073 10.1 -1.1°
Drops below altitude 10° 10:32:43 10° 54° (NE) 4,925 10.5 -4.8°
Enters shadow 10:34:34 - 54° (NE) 5,334 10.7 -5.2°
Sets 10:35:53 0° 54° (NE) 5,634 - -5.5°
